Temperature
8 7 7 7 7 8 8 7 8 8 8 7 7 7 8 8 8 7 8 8 9 10 10 10 10 10 10 10 10 10 10 10 10 9 9 9 9 9 9 8 8 8 8 8
7 7 8 8 7 8 7 7 7 8 8 7 6 6 7 7 7 8 8 8 9 9 9 10 10 10 10 10 10 10 10 9 9 9 9 9 9 9 8 8 8 8 8 8
8 8 8 8 7 7 7 7 7 7 7 7 7 7 7 7 7 7 8 8 9 9 9 10 9 9 9 9 9 9 9 9 9 9 9 8 8 8 8 8 8 8 8 8
7 7 7 7 7 7 7 7 7 7 6 5 6 6 7 7 6 6 7 7 8 9 9 9 9 9 9 9 9 9 9 9 9 8 8 8 8 8 8 8 8 8 8 8
7 7 7 7 7 7 7 6 6 6 6 5 5 5 6 6 6 7 6 7 7 8 8 9 9 9 9 9 9 8 8 8 8 8 8 8 8 8 8 7 7 7 7 7
6 6 6 7 6 6 6 5 5 4 4 5 5 5 6 5 6 6 6 7 7 8 8 8 8 8 8 8 8 8 8 8 8 8 8 7 7 7 7 7 7 7 7 7
6 6 6 6 6 6 5 5 5 5 4 5 5 5 5 5 5 5 5 6 7 7 7 7 7 8 8 8 7 7 7 7 7 7 7 7 7 7 7 7 7 7 7 7
5 5 5 5 5 5 5 5 5 5 5 4 4 4 5 5 5 5 5 6 6 6 7 7 7 7 7 7 7 7 7 7 7 7 7 7 7 7 7 7 7 6 6 6
3 4 5 5 5 5 4 4 5 4 4 4 4 4 4 5 4 4 4 5 5 5 6 6 6 7 7 7 7 7 7 7 7 6 6 6 6 6 6 6 6 6 6 6
3 3 4 4 5 5 4 3 3 4 4 4 5 4 4 5 4 4 3 4 4 5 5 6 6 6 6 6 6 6 6 6 6 6 6 6 6 6 6 6 6 6 6 6
3 3 3 3 3 3 3 3 3 3 3 4 4 4 4 4 4 3 3 4 4 4 4 5 5 5 6 6 6 6 6 6 6 6 6 6 6 6 5 5 5 5 5 5
2 1 1 2 3 3 3 3 2 3 2 2 2 3 4 3 3 3 3 3 4 4 4 4 5 5 5 5 5 5 5 5 5 5 5 5 5 5 5 5 5 5 5 5
2 2 2 2 3 2 2 2 2 2 1 1 1 3 4 2 2 2 2 3 3 3 3 4 4 4 4 4 4 5 5 5 5 4 5 5 5 5 5 4 4 4 4 5
3 1 1 2 2 2 2 2 2 2 1 1 1 3 3 2 2 2 2 2 2 3 3 3 3 3 4 4 4 4 4 4 4 4 4 4 4 4 4 4 4 4 4 4
1 0 0 1 1 1 1 2 2 1 1 1 2 2 2 2 1 2 2 1 1 2 2 2 2 2 3 3 4 4 4 4 4 4 4 4 4 4 4 4 4 4 4 4
-0 -0 -0 -0 1 1 1 1 1 1 1 1 1 1 1 1 2 1 1 1 0 1 1 1 1 2 2 2 3 3 3 3 3 3 3 3 3 3 3 3 3 3 3 3
-1 -1 -1 -1 -0 0 -0 -0 0 0 -0 0 0 0 0 0 0 0 0 0 0 0 0 1 1 1 1 2 2 2 3 3 3 3 3 3 3 3 3 3 3 3 3 3
-2 -2 -2 -2 -1 -1 0 0 0 -0 -1 -1 -1 -1 -1 -0 -0 0 0 0 -0 -0 -0 0 0 1 1 1 1 2 2 2 2 2 2 2 2 2 3 3 3 3 3 3
-2 -2 -2 -2 -2 -1 -1 -0 -1 -1 -1 -1 -1 -1 -1 -1 -1 -0 0 -0 -0 -0 -0 -0 0 0 1 1 1 1 1 1 1 2 2 2 2 2 2 2 2 2 2 2
-2 -2 -2 -2 -2 -1 -1 -1 -1 -1 -2 -1 -2 -2 -2 -2 -2 -1 -1 -1 -1 -1 -1 -1 -0 0 0 0 0 0 0 1 1 1 1 1 1 1 2 2 2 2 2 2
-3 -3 -3 -3 -2 -2 -2 -1 -1 -1 -1 -1 -2 -2 -2 -3 -2 -2 -2 -2 -1 -1 -1 -1 -1 -0 -0 -0 -0 -0 -0 0 0 0 1 1 1 1 1 1 1 1 1 1
-3 -3 -3 -3 -3 -2 -2 -2 -2 -2 -2 -2 -2 -2 -3 -3 -3 -3 -3 -2 -2 -2 -2 -1 -1 -1 -1 -1 -1 -1 -1 -0 -0 -0 0 0 0 0 1 1 1 1 1 1
-4 -3 -3 -3 -2 -2 -2 -2 -2 -2 -3 -3 -3 -3 -4 -4 -4 -4 -3 -3 -3 -3 -2 -2 -2 -2 -2 -1 -1 -1 -1 -1 -1 -1 -0 -0 -0 -0 -0 0 0 0 0 0
-4 -4 -4 -4 -4 -3 -3 -3 -3 -3 -3 -4 -4 -4 -4 -4 -4 -4 -4 -4 -4 -3 -3 -3 -3 -3 -2 -2 -2 -2 -2 -2 -1 -1 -1 -1 -1 -1 -1 -1 -1 -0 -0 -1
-4 -5 -5 -5 -4 -4 -3 -3 -4 -4 -4 -4 -4 -5 -5 -5 -5 -5 -5 -5 -4 -4 -4 -4 -3 -3 -3 -3 -2 -2 -2 -2 -2 -2 -1 -1 -1 -1 -1 -1 -1 -1 -1 -1
-5 -5 -5 -4 -4 -5 -5 -4 -5 -5 -5 -5 -5 -5 -5 -5 -6 -5 -5 -5 -5 -4 -4 -4 -4 -4 -3 -3 -3 -3 -3 -3 -3 -2 -2 -2 -2 -2 -2 -2 -2 -2 -2 -2
Wind_Speed
4 4 2 5 5 3 2 3 6 6 3 4 9 13 13 8 6 8 8 7 8 9 7 4 4 4 4 3 3 4 4 3 3 3 3 2 2 1 1 1 1 1 1 2
4 2 4 2 2 1 2 4 6 5 2 4 8 12 10 7 6 7 7 8 8 7 4 3 3 4 4 4 4 4 4 4 4 3 3 2 2 2 2 1 0 1 1 1
4 3 1 1 0 1 4 5 5 5 5 2 5 9 6 4 3 4 5 5 5 6 6 5 4 4 4 4 4 4 4 4 3 3 2 2 2 1 1 0 0 1 0 2
3 3 1 0 2 2 6 5 5 4 3 5 1 6 8 5 6 6 6 5 5 5 4 4 4 4 4 4 3 3 3 3 3 3 3 4 3 2 2 2 1 1 1 1
3 1 1 2 3 2 4 3 3 3 3 4 3 4 9 4 6 8 6 5 5 4 3 4 4 5 4 3 3 3 3 3 3 3 4 4 2 2 1 1 1 1 1 0
4 2 1 2 1 1 0 3 3 2 2 4 6 6 7 3 5 7 6 5 4 3 2 2 2 2 2 1 2 2 2 2 3 3 4 4 3 3 2 2 2 1 1 1
5 3 1 1 2 3 4 3 3 4 2 6 3 4 7 5 4 4 6 6 4 2 1 1 2 2 2 2 2 2 2 2 2 3 3 3 3 3 4 3 3 2 1 1
3 6 2 1 1 2 2 3 4 4 5 5 2 6 5 4 4 5 5 5 5 3 1 1 2 2 3 3 2 2 2 2 3 3 3 3 3 2 2 3 3 3 3 3
2 6 3 2 1 3 2 2 2 2 3 5 6 5 5 5 7 7 7 7 7 5 3 2 2 1 2 3 3 3 3 2 2 3 3 3 3 3 2 2 2 3 2 2
3 5 4 3 1 1 1 3 2 2 3 5 6 4 3 6 7 8 8 7 7 6 5 3 2 2 2 2 2 1 2 2 1 2 3 3 3 3 2 2 2 3 3 2
1 3 5 2 2 3 1 1 1 2 3 3 5 5 2 2 4 6 6 6 6 5 5 4 3 2 2 1 1 1 1 1 1 1 1 2 2 2 2 2 3 3 3 3
0 2 4 6 4 3 4 3 4 3 5 4 4 6 2 2 4 5 6 7 7 6 5 4 3 3 2 1 1 1 1 1 2 1 1 2 2 2 2 3 3 2 3 3
0 1 4 5 2 2 1 2 3 2 2 4 5 7 2 5 7 6 6 7 7 7 6 5 5 4 3 2 2 2 2 2 1 1 1 2 2 2 3 3 3 2 2 3
0 3 6 7 6 3 6 6 4 3 4 6 8 11 10 10 10 9 8 7 7 7 6 6 6 6 5 4 3 2 2 2 2 2 2 2 3 3 3 3 2 3 3 3
1 4 6 9 9 7 9 10 7 8 8 9 10 11 11 9 9 8 6 6 7 7 7 7 7 6 6 5 4 3 3 2 2 2 2 3 3 2 2 2 2 2 2 3
0 3 4 7 7 8 11 11 10 10 9 10 12 12 8 8 6 7 6 6 6 7 8 8 7 7 6 6 5 4 4 3 2 2 3 2 1 2 2 2 2 2 2 2
2 2 3 5 5 6 8 6 7 4 4 5 8 9 8 7 8 8 7 6 7 8 8 7 7 7 6 6 5 5 4 3 2 2 2 2 2 2 3 2 2 3 3 3
5 3 3 4 3 7 6 2 3 4 4 4 4 6 7 8 8 7 5 5 7 8 8 7 7 8 6 5 5 5 4 2 2 2 2 2 2 2 2 3 3 3 3 3
7 6 4 3 5 8 5 3 2 4 6 3 5 8 9 8 6 5 4 5 6 7 7 7 7 7 6 5 4 4 4 3 2 3 3 3 3 3 3 4 4 3 3 3
2 4 4 3 4 6 4 4 4 1 5 4 5 7 8 6 6 7 8 9 9 8 7 8 7 6 5 4 3 3 4 3 4 4 3 3 3 3 4 4 4 3 3 3
1 2 6 6 7 7 5 5 2 1 5 7 6 6 6 5 7 9 10 9 8 8 9 7 7 6 5 4 3 4 4 5 5 3 3 3 3 3 4 3 3 3 3 3
4 3 4 4 6 7 3 2 1 5 6 6 6 7 7 9 10 10 10 9 9 9 9 7 6 6 5 4 3 4 6 6 4 3 3 3 3 3 2 3 3 3 3 3
4 5 4 6 6 4 2 3 4 4 6 7 8 9 9 10 10 10 10 9 9 8 8 7 6 7 6 4 3 5 6 5 4 3 3 3 3 2 2 3 3 3 3 3
4 2 3 5 7 7 7 5 5 6 7 9 9 10 9 10 10 10 9 9 9 8 8 7 6 7 7 6 5 5 5 4 3 3 3 2 2 2 2 2 3 3 4 4
5 2 3 6 6 7 5 5 7 8 8 9 9 8 8 8 10 9 9 10 9 9 7 6 6 7 7 6 6 5 4 4 3 3 3 2 2 2 2 2 3 4 4 5
3 3 4 6 5 6 9 8 8 8 9 9 10 10 8 8 9 9 9 9 8 8 7 7 6 6 7 6 6 5 4 3 2 2 2 2 2 2 2 1 1 2 2 4
Wind_Direction
30 68 198 222 204 216 202 226 265 269 273 250 255 271 279 274 259 258 257 251 249 247 248 220 200 185 174 175 179 181 178 181 165 167 173 172 183 189 194 201 169 161 167 164
41 274 249 214 195 211 223 264 275 289 292 256 280 281 277 265 252 248 251 251 251 254 247 216 191 174 176 183 188 187 189 186 179 179 179 174 175 191 195 198 156 156 165 176
200 258 281 121 121 236 251 234 255 276 315 310 316 301 287 291 280 290 275 261 253 238 228 211 191 188 181 186 194 195 192 187 184 167 137 122 109 85 105 174 249 311 233 198
250 277 353 180 234 201 265 254 252 277 315 294 344 292 288 294 307 305 295 286 271 254 223 200 190 191 199 206 198 189 182 177 176 162 158 163 173 185 200 204 225 281 267 200
275 284 259 247 262 220 248 318 282 267 240 287 261 234 286 321 302 300 300 289 282 263 222 203 198 198 201 197 186 187 172 172 168 165 167 167 179 186 177 173 197 233 275 231
275 287 222 235 316 206 323 15 7 40 97 265 234 202 280 284 280 304 312 314 304 285 243 216 196 173 183 178 174 168 168 179 173 169 166 170 177 178 174 183 203 222 247 240
312 305 328 67 40 20 42 60 2 336 303 252 225 206 249 275 289 294 309 318 326 316 248 217 200 197 203 198 196 186 180 195 186 179 175 180 184 184 194 197 202 208 222 236
313 290 276 346 172 201 220 162 179 237 255 288 265 230 243 293 321 333 343 349 359 2 338 253 235 220 215 214 207 199 201 208 196 190 194 188 182 185 203 205 201 204 211 221
243 275 323 321 304 153 154 212 192 176 256 267 263 272 300 334 356 6 7 12 1 352 337 306 294 263 234 224 219 208 205 216 209 201 196 193 191 194 204 212 201 207 211 214
195 274 298 321 20 31 144 157 116 173 243 263 278 268 269 329 340 350 356 351 344 349 350 340 317 297 268 239 237 211 200 216 216 200 203 205 201 204 201 200 212 214 211 204
180 238 302 335 215 226 120 132 161 198 218 227 271 271 232 274 325 332 330 331 334 340 340 334 328 322 308 293 246 227 225 243 244 214 213 212 212 209 200 206 218 215 208 204
214 164 269 266 264 228 189 187 158 197 247 225 247 269 286 310 333 342 339 341 341 339 333 337 340 347 351 323 276 244 240 235 241 222 199 215 217 209 215 224 227 216 216 213
190 146 316 326 342 18 264 229 209 207 213 218 225 264 295 350 346 347 345 344 342 342 343 348 352 349 338 320 292 262 252 242 241 213 205 217 218 219 228 232 227 217 218 218
251 200 212 238 261 272 273 269 242 201 226 247 240 263 294 319 324 331 334 337 337 340 339 343 342 339 335 324 308 280 267 245 227 213 211 223 227 229 233 231 226 220 216 216
114 242 246 260 270 265 260 265 246 228 229 239 257 263 280 298 303 311 318 329 334 335 337 335 333 330 331 330 323 306 281 262 236 222 226 237 236 230 229 228 229 228 222 222
40 255 280 279 270 271 272 266 253 248 249 252 266 273 284 294 305 313 315 320 318 318 320 324 325 325 321 316 314 308 296 276 244 230 242 246 235 229 230 228 222 223 229 228
236 221 264 273 299 309 270 249 231 234 236 232 250 268 308 317 315 308 305 307 303 307 311 312 314 308 304 304 305 300 291 287 255 241 249 248 237 236 238 234 217 220 227 227
205 203 229 273 315 254 252 231 216 234 254 238 259 292 301 292 294 295 292 298 305 307 309 309 311 311 307 306 311 311 304 290 262 253 253 251 247 249 245 233 226 226 223 222
200 194 215 232 256 271 287 293 266 244 270 257 278 297 309 316 315 303 304 313 301 299 301 301 301 302 301 302 308 316 312 302 275 264 259 255 249 249 242 236 234 231 222 225
169 184 206 224 245 255 266 301 312 248 273 304 312 305 317 340 319 300 319 320 315 314 311 310 312 311 306 304 307 310 306 295 277 271 268 261 248 242 242 240 240 235 219 224
177 219 223 233 243 263 277 311 29 183 276 320 314 304 305 286 271 291 307 310 309 308 310 310 312 311 304 306 304 300 300 291 288 282 277 271 259 250 244 240 240 227 217 211
207 210 218 217 236 256 307 25 203 261 299 307 309 305 296 291 293 297 301 305 310 312 313 315 315 314 313 312 308 300 295 297 299 285 274 272 266 258 245 227 234 221 205 199
215 211 214 212 235 268 281 259 281 306 303 304 305 301 297 295 296 300 302 304 305 305 306 310 311 313 312 309 297 292 297 302 300 290 276 275 271 255 236 219 218 215 205 201
262 246 231 258 267 286 298 297 308 311 301 301 299 298 298 295 297 300 303 305 305 305 306 310 312 311 307 309 303 292 297 299 293 285 278 271 260 255 243 234 223 213 209 207
248 243 251 262 285 309 297 296 310 313 311 310 309 301 295 294 296 297 299 300 301 303 304 303 301 302 299 301 304 304 301 298 291 287 287 278 262 239 232 236 235 234 230 220
218 216 234 259 280 285 290 298 305 307 309 309 309 308 304 294 293 296 296 296 297 298 303 303 302 301 299 298 299 302 301 296 284 289 288 281 259 242 219 219 284 294 263 247
Height
1499 1504 1505 1504 1504 1504 1505 1507 1506 1502 1499 1500 1498 1493 1487 1484 1484 1482 1481 1480 1480 1480 1482 1484 1485 1487 1488 1490 1491 1493 1495 1496 1497 1498 1499 1500 1501 1503 1504 1504 1505 1505 1506 1507
1504 1505 1502 1502 1503 1504 1505 1506 1504 1501 1498 1498 1496 1491 1484 1480 1480 1478 1477 1476 1476 1476 1477 1479 1481 1483 1485 1486 1488 1490 1491 1493 1494 1495 1496 1498 1499 1500 1501 1502 1502 1503 1504 1504
1503 1502 1500 1501 1503 1504 1504 1505 1503 1502 1499 1497 1498 1490 1482 1477 1476 1475 1474 1473 1473 1473 1474 1475 1477 1479 1481 1483 1485 1487 1488 1490 1491 1492 1494 1495 1496 1497 1498 1499 1500 1501 1501 1502
1502 1501 1501 1501 1502 1502 1504 1500 1501 1501 1503 1505 1501 1501 1483 1479 1476 1473 1471 1470 1469 1470 1471 1473 1474 1476 1478 1481 1483 1484 1486 1487 1488 1490 1491 1492 1493 1494 1495 1496 1498 1498 1499 1499
1502 1501 1501 1501 1501 1501 1501 1500 1501 1501 1502 1505 1503 1503 1487 1481 1477 1472 1470 1468 1468 1468 1469 1470 1472 1474 1477 1479 1480 1482 1483 1484 1485 1487 1488 1489 1490 1491 1493 1494 1495 1495 1496 1496
1502 1501 1500 1501 1500 1500 1501 1502 1502 1504 1506 1505 1499 1502 1490 1484 1477 1472 1469 1467 1466 1466 1467 1469 1471 1473 1474 1476 1478 1479 1480 1481 1482 1484 1485 1486 1487 1489 1490 1491 1492 1492 1493 1494
1504 1502 1500 1500 1501 1502 1502 1507 1511 1508 1510 1502 1496 1497 1489 1478 1475 1472 1469 1467 1466 1465 1466 1467 1469 1470 1472 1473 1474 1476 1477 1478 1479 1480 1482 1483 1484 1486 1487 1488 1489 1489 1490 1490
1510 1508 1501 1501 1501 1504 1504 1505 1511 1511 1509 1503 1497 1495 1484 1476 1473 1471 1469 1467 1466 1465 1466 1466 1467 1469 1470 1471 1472 1472 1473 1475 1476 1477 1479 1480 1482 1483 1484 1485 1486 1486 1487 1488
1514 1508 1502 1501 1500 1501 1504 1506 1505 1510 1508 1506 1497 1490 1482 1474 1472 1470 1469 1467 1466 1466 1465 1465 1466 1467 1468 1468 1469 1470 1471 1472 1473 1474 1476 1477 1479 1480 1481 1482 1483 1483 1484 1485
1512 1512 1504 1502 1501 1501 1503 1505 1510 1509 1506 1502 1492 1490 1486 1477 1475 1472 1470 1468 1467 1466 1465 1464 1464 1465 1465 1466 1467 1468 1468 1469 1470 1471 1473 1474 1475 1476 1478 1479 1480 1480 1481 1482
1511 1514 1509 1505 1504 1504 1505 1506 1506 1508 1507 1504 1500 1491 1480 1478 1475 1474 1471 1469 1468 1466 1465 1464 1464 1463 1464 1464 1465 1465 1466 1467 1467 1468 1469 1471 1472 1473 1474 1475 1476 1477 1478 1478
1512 1515 1514 1507 1502 1501 1502 1503 1507 1509 1507 1506 1503 1493 1477 1476 1474 1473 1472 1470 1468 1467 1465 1464 1463 1462 1461 1461 1462 1462 1463 1464 1464 1465 1466 1467 1469 1470 1471 1472 1472 1473 1474 1475
1511 1514 1514 1507 1506 1504 1503 1502 1503 1504 1507 1508 1504 1490 1476 1475 1474 1473 1472 1470 1468 1466 1465 1463 1462 1461 1460 1460 1460 1460 1460 1461 1462 1462 1463 1464 1465 1466 1467 1468 1469 1470 1470 1471
1509 1512 1514 1510 1503 1503 1503 1501 1501 1503 1505 1502 1495 1485 1477 1476 1475 1473 1471 1469 1468 1466 1464 1462 1460 1459 1458 1458 1458 1458 1458 1458 1459 1459 1460 1460 1461 1462 1463 1464 1465 1466 1467 1468
1509 1511 1508 1505 1502 1501 1499 1497 1496 1497 1495 1495 1486 1483 1478 1477 1475 1473 1471 1469 1467 1465 1463 1461 1459 1458 1457 1456 1455 1455 1455 1455 1455 1456 1456 1457 1457 1458 1459 1460 1461 1462 1463 1464
1509 1510 1508 1505 1499 1498 1495 1492 1491 1490 1489 1488 1484 1480 1476 1475 1474 1471 1469 1467 1465 1463 1461 1459 1458 1456 1455 1454 1453 1452 1452 1452 1452 1452 1453 1453 1454 1454 1455 1456 1457 1458 1459 1460
1510 1510 1509 1505 1501 1498 1493 1489 1487 1487 1485 1484 1482 1479 1475 1474 1471 1469 1467 1465 1463 1461 1459 1457 1455 1454 1453 1452 1450 1449 1449 1449 1449 1449 1449 1450 1450 1451 1451 1452 1453 1454 1454 1455
1508 1509 1509 1507 1504 1503 1488 1482 1481 1482 1481 1480 1478 1476 1474 1472 1468 1466 1465 1463 1460 1459 1456 1454 1453 1451 1450 1449 1448 1447 1446 1446 1446 1446 1446 1446 1447 1447 1448 1448 1449 1450 1450 1451
1502 1505 1507 1507 1504 1492 1486 1482 1481 1481 1479 1477 1475 1473 1471 1468 1465 1462 1461 1460 1459 1457 1454 1452 1450 1448 1446 1445 1445 1444 1443 1442 1442 1442 1442 1442 1443 1443 1443 1444 1445 1445 1446 1446
1500 1502 1505 1504 1501 1491 1484 1480 1477 1479 1479 1474 1472 1471 1469 1467 1467 1461 1459 1457 1454 1453 1451 1449 1446 1444 1443 1442 1441 1440 1439 1439 1438 1438 1438 1439 1439 1439 1439 1440 1441 1441 1442 1442
1502 1503 1502 1500 1497 1488 1482 1479 1477 1483 1479 1474 1472 1470 1468 1467 1465 1461 1457 1454 1451 1449 1447 1445 1443 1440 1439 1438 1437 1436 1436 1435 1435 1435 1435 1435 1435 1435 1435 1436 1436 1437 1437 1438
1499 1500 1500 1498 1496 1489 1480 1479 1481 1479 1475 1472 1470 1468 1466 1462 1459 1456 1453 1450 1447 1444 1442 1440 1438 1436 1435 1434 1434 1432 1432 1432 1431 1431 1430 1430 1430 1431 1431 1431 1432 1432 1433 1433
1495 1494 1492 1492 1487 1480 1478 1478 1477 1476 1473 1470 1468 1465 1462 1458 1455 1452 1448 1446 1443 1441 1438 1436 1434 1432 1431 1431 1430 1429 1428 1428 1427 1426 1426 1426 1426 1426 1427 1427 1427 1427 1428 1429
1491 1489 1489 1487 1480 1478 1477 1475 1474 1472 1470 1467 1464 1461 1457 1454 1450 1447 1444 1441 1439 1436 1434 1432 1430 1428 1427 1426 1426 1425 1424 1423 1423 1422 1422 1422 1422 1422 1422 1422 1423 1423 1423 1424
1488 1488 1487 1484 1479 1476 1473 1473 1471 1468 1466 1462 1459 1456 1453 1450 1446 1443 1440 1437 1434 1432 1430 1429 1427 1425 1423 1422 1421 1421 1420 1419 1418 1418 1418 1418 1418 1418 1417 1418 1419 1419 1420 1421
1485 1486 1485 1480 1478 1477 1472 1469 1467 1464 1461 1458 1455 1451 1448 1446 1442 1439 1436 1433 1430 1428 1426 1424 1422 1421 1419 1418 1417 1417 1416 1415 1414 1414 1414 1414 1414 1414 1414 1414 1415 1415 1417 1418